FW8178 Weather Reports


Display with metric or nautical units.
time (UTC)temp
F
wind
direction
speed
MPH
gust
MPH
rain 1hr
in
rain 24hr
in
rain mn
in
humidity
%
barometer
mb
20260502213048 63 113 0.0 1.0 0.00 0.00 0.00 90 1015.4
20260502211550 63 113 1.0 7.0 0.00 0.00 0.00 89 1015.3
20260502210045 63 111 5.0 7.0 0.00 0.00 0.00 89 1015.2
20260502204549 63 96 3.0 6.0 0.00 0.00 0.00 89 1015.2
20260502203106 63 103 5.0 8.0 0.00 0.00 0.00 89 1015.2
20260502201541 64 96 4.0 9.0 0.00 0.00 0.00 88 1014.8
20260502200041 64 134 6.0 10.0 0.00 0.00 0.00 88 1014.8
20260502194540 64 100 7.0 11.0 0.00 0.00 0.00 88 1014.5
20260502193037 64 113 5.0 11.0 0.00 0.00 0.00 87 1014.4
20260502191537 65 113 4.0 9.0 0.00 0.00 0.00 85 1014.5
20260502190036 65 111 5.0 11.0 0.00 0.00 0.00 85 1014.4
20260502184535 65 101 6.0 13.0 0.00 0.00 0.00 85 1014.4
20260502183033 65 103 9.0 13.0 0.00 0.00 0.00 84 1014.4
20260502181546 66 92 9.0 14.0 0.00 0.00 0.00 84 1014.6
20260502170103 68 113 8.0 11.0 0.00 0.00 0.00 80 1014.9
20260502163055 69 134 9.0 13.0 0.00 0.00 0.00 78 1015.1
20260502163052 69 110 9.0 13.0 0.00 0.00 0.00 78 1015.1
20260502161550 69 94 7.0 14.0 0.00 0.00 0.00 79 1015.3
20260502151559 70 63 8.0 13.0 0.00 0.00 0.00 75 1015.8
20260502123051 71 88 9.0 14.0 0.00 0.00 0.00 74 1017.1
20260502121521 71 87 9.0 16.0 0.00 0.00 0.00 73 1016.9
20260502114512 70 98 8.0 12.0 0.00 0.00 0.00 74 1017.8
20260502113009 70 96 6.0 14.0 0.00 0.00 0.00 75 1017.9
20260502111508 69 101 9.0 15.0 0.00 0.00 0.00 75 1017.7
20260502110006 70 88 10.0 17.0 0.00 0.00 0.00 77 1017.9
20260502104559 69 82 7.0 15.0 0.00 0.00 0.00 78 1018.1
20260502103101 69 78 9.0 16.0 0.00 0.00 0.00 77 1018.1
20260502101557 69 91 10.0 15.0 0.00 0.00 0.00 76 1018.2
20260502070050 65 40 1.0 3.0 0.00 0.00 0.00 87 1018.6
20260502064557 64 355 1.0 3.0 0.00 0.00 0.00 88 1018.8
20260502063049 64 355 1.0 3.0 0.00 0.00 0.00 88 1018.7
20260502061514 64 194 0.0 1.0 0.00 0.00 0.00 89 1018.7
20260502060112 64 194 0.0 1.0 0.00 0.00 0.00 90 1018.5
20260502054508 63 194 0.0 2.0 0.00 0.00 0.00 90 1018.4
20260502053007 63 194 0.0 2.0 0.00 0.00 0.00 90 1018.5
20260502051502 63 194 0.0 2.0 0.00 0.00 0.00 89 1018.4
20260502050002 63 194 1.0 3.0 0.00 0.00 0.00 89 1018.4
20260502044559 63 194 1.0 3.0 0.00 0.00 0.00 88 1018.2
20260502043100 64 308 1.0 3.0 0.00 0.00 0.00 88 1018.3
20260502041556 63 308 0.0 1.0 0.00 0.00 0.00 89 1018.0
20260502040106 64 308 1.0 2.0 0.00 0.00 0.00 88 1018.5
20260502034556 64 307 1.0 4.0 0.00 0.00 0.00 89 1018.4
20260502033050 63 248 1.0 2.0 0.00 0.00 0.00 89 1018.4
20260502031550 63 248 1.0 2.0 0.00 0.00 0.00 89 1018.4
20260502030046 63 197 0.0 1.0 0.00 0.00 0.00 90 1018.4
20260502024546 63 197 0.0 1.0 0.00 0.00 0.00 90 1018.5
20260502023050 63 197 1.0 2.0 0.00 0.00 0.00 90 1018.4
20260502021544 62 197 2.0 3.0 0.00 0.00 0.00 90 1018.4
20260502020053 63 197 1.0 2.0 0.00 0.00 0.00 91 1018.6
20260502014548 62 197 1.0 3.0 0.00 0.00 0.00 91 1018.7
20260502013033 62 196 0.0 3.0 0.00 0.00 0.00 90 1018.8
20260502011531 63 196 1.0 3.0 0.00 0.00 0.00 89 1018.9
20260502010032 63 84 0.0 2.0 0.00 0.00 0.00 89 1019.0
20260502004532 64 84 0.0 0.0 0.00 0.00 0.00 88 1019.0
20260502003025 64 84 0.0 0.0 0.00 0.00 0.00 88 1019.3
20260502001536 64 84 0.0 0.0 0.00 0.00 0.00 87 1019.6
20260502000024 64 84 0.0 0.0 0.00 0.01 0.00 88 1019.8
20260501234523 64 84 0.0 0.0 0.00 0.01 0.00 88 1020.0
20260501233054 64 84 0.0 1.0 0.00 0.01 0.00 89 1020.1
20260501231553 64 84 1.0 4.0 0.00 0.01 0.00 89 1020.1
20260501230022 63 175 0.0 3.0 0.00 0.01 0.00 90 1020.1
20260501224522 63 180 1.0 2.0 0.00 0.01 0.00 90 1020.1
20260501223020 63 180 1.0 3.0 0.00 0.01 0.00 90 1020.3
20260501221518 63 176 2.0 3.0 0.00 0.01 0.00 90 1020.3
20260501220017 63 163 3.0 5.0 0.00 0.01 0.00 89 1020.1
20260501214517 63 153 2.0 5.0 0.00 0.01 0.00 89 1020.1